Weather History for Fairbanks, AK

Change the Weather History Date:

Saturday, July 21, 2012

  Actual Average Record
Temperature  
Mean Temperature 59 °F 62 °F  
Max Temperature 63 °F 72 °F 88 °F (1915)
Min Temperature 55 °F 52 °F 35 °F (1928)
Degree Days  
Heating Degree Days 6 4  
Month to date heating degree days 112 65  
Since 1 June heating degree days 227 225  
Since 1 July heating degree days 112 65  
Cooling Degree Days 0 1  
Month to date cooling degree days 4 25  
Year to date cooling degree days 25 49  
Since 1 June cooling degree days 25 48  
Growing Degree Days 8 (Base 50)    
Moisture  
Dew Point 55 °F    
Average Humidity 85    
Maximum Humidity 93    
Minimum Humidity 75    
Precipitation  
Precipitation 0.19 in 0.08 in 1.35 in (2010)
Month to date precipitation 1.46 1.43  
Year to date precipitation 5.50 4.96  
Snow  
Snow 0.00 in 0.00 in 0.00 in (2002)
Month to date snowfall 0.0 0.0  
Since 1 June snowfall 0.0 0.0  
Since 1 July snowfall 0.0 0.0  
Snow Depth 0.00 in    
Sea Level Pressure  
Sea Level Pressure 29.79 in    
Wind  
Wind Speed 3 mph (North)    
Max Wind Speed 7 mph    
Max Gust Speed -    
Visibility 9 miles    
Events Fog , Rain    
T = Trace of Precipitation, MM = Missing Value Source: NWS Daily Summary

Daily Weather History Graph

Daily Weather History Graph

Search for Another Location

Airport:

Trip Planner

Search our weather history database for the weather conditions in past years. The results will help you decide how hot, cold, wet, or windy it might be!

Date:

Astronomy

Jul. 21, 2012 Rise Set
Actual Time 4:16 AM AKDT 11:37 PM AKDT
Civil Twilight 2:30 AM AKDT 1:25 AM AKDT
Nautical Twilight Sun does not rise Sun does not rise
Astronomical Twilight Sun does not rise Sun does not rise
Moon 8:55 AM AKDT (7/21) 10:52 PM AKDT (7/21)
Length of Visible Light 22h 55m
Length of Day
19h 21m
Waxing Crescent, 8% of the Moon is Illuminated
Jul 21
Waxing Crescent
Jul 26
First Quarter
Aug 1
Full
Aug 9
Last Quarter
Aug 17
New

Hourly Weather History & Observations

Time (AKDT) Temp. Dew Point Humidity Pressure Visibility Wind Dir Wind Speed Gust Speed Precip Events Conditions
12:53 AM 57.9 °F 50.0 °F 75% 29.77 in 10.0 mi North 6.9 mph - N/A   Mostly Cloudy
1:53 AM 57.9 °F 50.0 °F 75% 29.76 in 10.0 mi North 5.8 mph - N/A   Overcast
2:53 AM 57.9 °F 50.0 °F 75% 29.75 in 10.0 mi NNE 3.5 mph - N/A   Overcast
3:53 AM 55.9 °F 52.0 °F 87% 29.75 in 8.0 mi NE 5.8 mph - 0.01 in Rain Light Rain
4:53 AM 55.0 °F 53.1 °F 93% 29.75 in 10.0 mi NNE 3.5 mph - 0.00 in Rain Light Rain
5:53 AM 55.0 °F 53.1 °F 93% 29.76 in 10.0 mi Calm Calm - 0.01 in Rain Light Rain
6:53 AM 55.9 °F 53.1 °F 90% 29.76 in 10.0 mi Calm Calm - 0.00 in Rain Light Rain
7:53 AM 55.9 °F 54.0 °F 93% 29.77 in 4.0 mi Calm Calm - 0.02 in Rain Rain
8:53 AM 55.9 °F 54.0 °F 93% 29.77 in 6.0 mi Calm Calm - 0.04 in Rain Light Rain
9:53 AM 57.9 °F 55.0 °F 90% 29.78 in 8.0 mi Calm Calm - 0.02 in Fog Patches of Fog
10:53 AM 57.9 °F 55.0 °F 90% 29.79 in 10.0 mi Calm Calm - N/A Fog Patches of Fog
11:53 AM 59.0 °F 55.9 °F 90% 29.79 in 5.0 mi NW 4.6 mph - 0.00 in Rain Light Rain
12:53 PM 61.0 °F 57.0 °F 87% 29.80 in 10.0 mi Calm Calm - 0.01 in   Overcast
1:53 PM 62.1 °F 57.0 °F 84% 29.81 in 10.0 mi North 3.5 mph - N/A   Overcast
2:49 PM 62.6 °F 55.4 °F 77% 29.80 in 10.0 mi North 4.6 mph - 0.00 in Rain Light Rain
2:53 PM 62.1 °F 55.9 °F 80% 29.81 in 10.0 mi NNE 4.6 mph - 0.00 in Rain Light Rain
3:53 PM 62.1 °F 55.9 °F 80% 29.82 in 9.0 mi Calm Calm - 0.00 in Rain Light Rain
4:09 PM 62.6 °F 57.2 °F 82% 29.80 in 10.0 mi Calm Calm - 0.00 in   Overcast
4:53 PM 62.1 °F 57.0 °F 84% 29.82 in 7.0 mi Calm Calm - 0.01 in Rain Light Rain
5:53 PM 63.0 °F 57.0 °F 81% 29.81 in 10.0 mi Calm Calm - 0.00 in   Overcast
6:53 PM 63.0 °F 57.9 °F 84% 29.82 in 9.0 mi Calm Calm - 0.00 in Rain Light Rain
7:53 PM 63.0 °F 57.9 °F 84% 29.82 in 10.0 mi Calm Calm - 0.01 in   Overcast
8:53 PM 63.0 °F 57.0 °F 81% 29.83 in 10.0 mi NNE 3.5 mph - N/A   Overcast
9:53 PM 61.0 °F 57.9 °F 90% 29.83 in 6.0 mi North 5.8 mph - 0.00 in Rain Light Rain
10:53 PM 60.1 °F 57.9 °F 93% 29.84 in 7.0 mi North 4.6 mph - 0.02 in Rain Light Rain
11:53 PM 59.0 °F 57.0 °F 93% 29.84 in 9.0 mi North 4.6 mph - 0.00 in Rain Light Rain